Regional Weather Roundup
Issued by NWS

Home | Current Version | Previous Version | Text Only | Print | Product List | Glossary Off
Versions: 1 2 3 4 5 6 7 8 9 10 11 12 13 14 15 16 17 18 19 20 21 22 23 24 25 26 27 28 29 30 31 32 33 34 35 36 37 38 39 40 41 42 43 44 45 46 47 48 49 50

000
ASUS43 KLOT 260206
RWRIL

ILLINOIS REGIONAL WEATHER ROUNDUP
NATIONAL WEATHER SERVICE CHICAGO/ROMEOVILLE IL
800 PM CST TUE NOV 25 2014

NOTE: "FAIR" INDICATES FEW OR NO CLOUDS BELOW 12,000 FEET WITH NO
SIGNIFICANT WEATHER AND/OR OBSTRUCTIONS TO VISIBILITY.

* THESE STATIONS ARE NOT UNDER NWS QUALITY CONTROL. THEY ALSO MAY NOT
  REPORT WEATHER SUCH AS PRECIPITATION OR FOG.

ILZ001-002-007-009-015-016-024-260300-
NORTHWEST ILLINOIS

CITY           SKY/WX    TMP DP  RH WIND       PRES   REMARKS
MOLINE         CLEAR     15  12  88 E3        30.15S
STERLING*      CLEAR     18  12  79 SE5       30.16R WCI  11
SAVANNA*       CLEAR     13  10  88 CALM      30.16S
$$

ILZ003-004-008-010-011-017-018-260300-
NORTH CENTRAL ILLINOIS

CITY           SKY/WX    TMP DP  RH WIND       PRES   REMARKS
ROCKFORD       CLEAR     14  10  84 S5        30.18R WCI   6
FREEPORT*      CLEAR     12  10  89 S6        30.17R WCI   3
ROCHELLE*      CLEAR     10   8  92 SE7       30.17S WCI   0
DE KALB*       CLEAR     12  10  92 S5        30.16S WCI   4
PERU*          CLEAR     21  19  91 S5        30.19S WCI  15
$$

ILZ005-006-012>014-019>023-260300-
NORTHEAST ILLINOIS

CITY           SKY/WX    TMP DP  RH WIND       PRES   REMARKS
CHICAGO-OHARE  PTCLDY    18  14  84 SW5       30.17S WCI  11
CHICAGO-MIDWAY PTCLDY    23  17  78 SW6       30.18S WCI  16
AURORA         CLEAR     15   9  76 CALM      30.19R HAZE
LANSING*       CLOUDY    24  19  81 S3        30.19S
JOLIET*        PTCLDY    21  17  84 CALM      30.19S
WAUKEGAN       MOCLDY    18  13  80 SW3       30.16R
DUPAGE AIRPORT CLEAR     16  13  88 CALM      30.17R
KANKAKEE*      CLOUDY   N/A N/A N/A CALM      30.21R
WHEELING       CLEAR     20  14  77 S6        30.19S WCI  12
MORRIS*        PTCLDY    19  18  94 S3        30.19R
ROMEOVILLE*    MOCLDY    19  16  89 SW6       30.19R WCI  11
NORTHERLY ISL    N/A     23  17  78 SW2         N/A
$$

LMZ740>746-260300-
SOUTHERN LAKE MICHIGAN

STATION/POSITION SKY/WX   TEMP    WIND        PRES    VSBY  WAVE
                          AIR SEA DIR/SP/G                  HT/PER
                          (F)     (DEG/KT/KT) (MB)    (MI)  (FT/S)
SOUTHERN BUOY              28 42  240/  8/ 14 1022.1R         3/ 6
WAUKEGAN HARBOR            21     240/  5/  7   N/A
HARRISON CRIB              24     200/  9/ 11   N/A
BURNHAM HARBOR             23     190/  6/  7   N/A
CALUMET HARBOR             23     200/  6/  7 1021.0R
MICHIGAN CITY              25     170/  9/ 10   N/A
$$

ILZ025>027-034>036-040-047-049-050-058-095>099-260300-
WEST-CENTRAL ILLINOIS

CITY           SKY/WX    TMP DP  RH WIND       PRES   REMARKS
QUINCY         CLEAR     27  21  78 SE6       30.14S WCI  20
GALESBURG*     CLEAR     19  18  97 E3        30.15F
MACOMB*        CLEAR     25  23  94 E3        30.18S
JACKSONVILLE*  CLEAR     30  23  75 CALM      30.17F
PITTSFIELD*    CLEAR     30  25  81 CALM      30.17S
$$

ILZ028>032-037-038-041>044-048-051>054-059>061-260300-
CENTRAL ILLINOIS

CITY           SKY/WX    TMP DP  RH WIND       PRES   REMARKS
PONTIAC        MOCLDY    23  20  89 CALM      30.20S
BLOOMINGTON    CLEAR     24  21  88 NE3       30.18S
DECATUR        CLEAR     26  22  84 SE6       30.20R WCI  19
PEORIA         CLEAR     23  18  81 CALM      30.18S
LACON*         CLEAR     20  17  88 CALM      30.18S
LINCOLN*       CLEAR     26  23  89 CALM      30.20S
SPRINGFIELD    CLEAR     26  22  84 SE5       30.18S WCI  20
TAYLORVILLE    CLEAR     28  25  86 E5        30.20R WCI  23
$$

ILZ033-039-045-046-055>057-062-063-260300-
EAST-CENTRAL ILLINOIS

CITY           SKY/WX    TMP DP  RH WIND       PRES   REMARKS
CHAMPAIGN      CLOUDY    28  22  78 E6        30.20S WCI  22
DANVILLE*      CLOUDY    25  20  83 SE3       30.19F
RANTOUL*       CLOUDY    29  22  76 CALM      30.20R
MATTOON        MOCLDY    29  22  75 CALM      30.19S
PARIS*         CLOUDY    28  24  84 CALM      30.23S
$$

ILZ079-100>102-260300-
SOUTHWEST ILLINOIS

CITY           SKY/WX    TMP DP  RH WIND       PRES   REMARKS
ALTON          CLEAR     28  25  86 CALM      30.19R
BELLEVILLE     CLEAR     31  26  81 SE5       30.19R WCI  26
CAHOKIA*       CLEAR     29  24  82 CALM      30.19R
SPARTA*        CLEAR     30  24  79 CALM      30.20S
$$

ILZ064>066-069>071-074>076-080>082-084>086-088>090-092>094-260300-
SOUTH-CENTRAL ILLINOIS

CITY           SKY/WX    TMP DP  RH WIND       PRES   REMARKS
CARBONDALE     CLEAR     28  23  81 CALM      30.20S
CAIRO*         CLEAR     32  26  78 CALM      30.20S
EFFINGHAM*     CLEAR     28  23  82 CALM      30.21S
MARION         CLEAR     28  27  93 CALM      30.21S
MT. VERNON     CLEAR     27  19  74 CALM      30.21S
CENTRALIA*     CLEAR     27  24  89 E3        30.20S
SALEM*           N/A     31  26  83 E3        30.20S
METROPOLIS*    CLEAR     33  28  81 N3          N/A
$$

ILZ067-068-072-073-078-083-087-091-260300-
SOUTHEAST ILLINOIS

CITY           SKY/WX    TMP DP  RH WIND       PRES   REMARKS
LAWRENCEVILLE  CLOUDY    31  24  75 N3        30.24R
FLORA*         PTCLDY    29  26  88 CALM      30.22S
FAIRFIELD*     CLEAR     28  25  87 NE3       30.21S
HARRISBURG*    CLEAR     29  27  90 CALM      30.22S
ROBINSON*      CLOUDY    31  24  78 NE3       30.24S
CARMI*         PTCLDY    29  27  93 N6        30.22R WCI  23
$$

ABBREVIATIONS USED IN REMARKS
   TC - TEMPERATURE IN CELSIUS
  WCI - WIND CHILL INDEX
   HX - HEAT INDEX
  VSB - VISIBILITY
$$



USA.gov is the U.S. government's official web portal to all federal, state and local government web resources and services.